Altus AFB, OK

2:56 AM CDT on April 25, 2017 (GMT -0500)
Altus Air Force Base

Weather History for KLTS - February, 2014

Change the Weather History Date:

Tuesday, February 25, 2014

  Actual Average Record
Temperature  
Mean Temperature 37 °F -  
Max Temperature 42 °F 54 °F 63 °F (2015)
Min Temperature 29 °F 31 °F 22 °F (2017)
Degree Days  
Heating Degree Days 28    
Moisture  
Dew Point 26 °F    
Average Humidity 67    
Maximum Humidity 100    
Minimum Humidity 43    
Precipitation  
Precipitation 0.00 in - - ()
Sea Level Pressure  
Sea Level Pressure 30.21 in    
Wind  
Wind Speed 13 mph (NNE)    
Max Wind Speed 28 mph    
Max Gust Speed 34 mph    
Visibility 10 miles    
Events      
Averages and records for this station are not official NWS values.
T = Trace of Precipitation, MM = Missing Value Source: NWS Daily Summary

Daily Weather History Graph

Daily Weather History Graph

Search for Another Location

Airport or City:

Trip Planner

Search our weather history database for the weather conditions in past years. The results will help you decide how hot, cold, wet, or windy it might be!

Date:

Astronomy

Feb. 25, 2014 Rise Set
Actual Time 7:11 AM CST 6:29 PM CST
Civil Twilight 6:45 AM CST 6:54 PM CST
Nautical Twilight 6:16 AM CST 7:24 PM CST
Astronomical Twilight 5:47 AM CST 7:53 PM CST
Moon 4:00 AM CST 2:43 PM CST
Length of Visible Light 12h 09m
Length of Day
11h 18m
Waning Crescent, 18% of the Moon is Illuminated
Feb 25
Waning Crescent
Mar 1
New
Mar 8
First Quarter
Mar 16
Full
Mar 23
Last Quarter

Hourly Weather History & Observations

Time (CST) Temp. Windchill Dew Point Humidity Pressure Visibility Wind Dir Wind Speed Gust Speed Precip Events Conditions
12:58 AM 34.7 °F 31.8 °F 34.3 °F 99% 30.12 in 10.0 mi ENE 3.5 mph - N/A   Clear
1:58 AM 34.9 °F 28.3 °F 34.5 °F 99% 30.13 in 10.0 mi NE 8.1 mph - N/A   Clear
2:53 AM 35.6 °F 27.5 °F 35.6 °F 100% 30.14 in 10.0 mi NNE 11.5 mph - N/A   Mostly Cloudy
2:58 AM 35.6 °F 27.1 °F 35.4 °F 99% 30.16 in 10.0 mi NNE 12.7 mph - N/A   Mostly Cloudy
3:58 AM 37.6 °F 32.3 °F 36.3 °F 95% 30.16 in 10.0 mi NNE 6.9 mph - N/A   Overcast
4:58 AM 38.5 °F 30.7 °F 34.3 °F 85% 30.17 in 10.0 mi North 12.7 mph - N/A   Overcast
5:58 AM 37.2 °F 31.2 °F 33.1 °F 85% 30.18 in 10.0 mi NNE 8.1 mph - N/A   Mostly Cloudy
6:45 AM 35.6 °F 27.5 °F 32.0 °F 87% 30.17 in 10.0 mi NNE 11.5 mph - N/A   Scattered Clouds
6:50 AM 35.6 °F 28.0 °F 32.0 °F 87% 30.17 in 10.0 mi NNE 10.4 mph - N/A   Mostly Cloudy
6:58 AM 36.0 °F 28.5 °F 31.1 °F 82% 30.21 in 10.0 mi NNE 10.4 mph - N/A   Mostly Cloudy
7:58 AM 35.4 °F 26.0 °F 29.5 °F 79% 30.24 in 10.0 mi North 15.0 mph - N/A   Overcast
8:58 AM 34.2 °F 23.3 °F 25.0 °F 69% 30.27 in 10.0 mi NNE 18.4 mph - N/A   Overcast
9:58 AM 36.1 °F 25.5 °F 23.4 °F 60% 30.27 in 10.0 mi NNE 19.6 mph - N/A   Overcast
10:38 AM 37.4 °F 27.2 °F 23.0 °F 56% 30.23 in 10.0 mi NNE 19.6 mph - N/A   Overcast
10:58 AM 38.3 °F 28.4 °F 22.3 °F 53% 30.25 in 10.0 mi NNE 19.6 mph - N/A   Overcast
11:58 AM 41.0 °F 32.8 °F 21.4 °F 46% 30.23 in 10.0 mi NNE 16.1 mph 23.0 mph N/A   Overcast
12:58 PM 42.8 °F 34.8 °F 21.4 °F 43% 30.20 in 10.0 mi NNE 17.3 mph - N/A   Overcast
1:58 PM 42.3 °F 34.4 °F 20.8 °F 43% 30.17 in 10.0 mi NNE 16.1 mph - N/A   Overcast
2:58 PM 41.9 °F 34.0 °F 21.6 °F 44% 30.16 in 10.0 mi NNE 16.1 mph - N/A   Overcast
3:58 PM 41.2 °F 32.4 °F 21.6 °F 46% 30.14 in 10.0 mi NNE 18.4 mph - N/A   Overcast
4:58 PM 40.8 °F 32.6 °F 21.7 °F 47% 30.13 in 10.0 mi NE 16.1 mph - N/A   Overcast
5:58 PM 39.9 °F 31.1 °F 22.3 °F 49% 30.15 in 10.0 mi NE 17.3 mph - N/A   Overcast
6:58 PM 39.6 °F 31.3 °F 22.5 °F 50% 30.18 in 10.0 mi NE 15.0 mph - N/A   Overcast
7:58 PM 39.7 °F 32.7 °F 22.8 °F 51% 30.21 in 10.0 mi NE 11.5 mph - N/A   Overcast
8:58 PM 39.6 °F 30.3 °F 22.5 °F 50% 30.23 in 10.0 mi NNE 18.4 mph 24.2 mph N/A   Overcast
9:58 PM 35.6 °F 23.4 °F 20.8 °F 55% 30.29 in 10.0 mi NNE 25.3 mph 33.4 mph N/A   Overcast
10:58 PM 32.0 °F 18.1 °F 20.1 °F 62% 30.34 in 10.0 mi North 27.6 mph 33.4 mph N/A   Overcast
11:13 PM 32.0 °F 18.4 °F 19.4 °F 60% 30.33 in 10.0 mi NNE 26.5 mph 34.5 mph N/A   Overcast
11:58 PM 29.5 °F 15.3 °F 19.2 °F 66% 30.38 in 10.0 mi NNE 25.3 mph 34.5 mph N/A   Overcast